Tracking 28790 objects as of 19-Apr-2024
HD Live streaming from Space Station
objects crossing your sky now

COSMOS 2251 DEB

Track COSMOS 2251 DEB now!
10-day predictions


NORAD ID: 36059
Int'l Code: 1993-036AXW
Perigee: 645.2 km
Apogee: 698.3 km
Inclination: 74.0 °
Period: 98.0 minutes
Semi major axis: 7042 km
RCS: 0.003 m2 (small)
Launch date: June 16, 1993
Source: Commonwealth of Independent States (former USSR) (CIS)
Launch site: PLESETSK MISSILE AND SPACE COMPLEX (PKMTR)

Note: This is SATELLITE DEBRIS
Your satellite tracking list
Your tracking list is empty




NASA's NSSDC Master Catalog

Two Line Element Set (TLE):
1 36059U 93036AXW 24109.09037411  .00076955  00000-0  12878-1 0  9994
2 36059  73.9967 254.9146 0037668 112.3496 248.1674 14.68885927764178
Source of the keplerian elements: AFSPC